PRIVATE WETTERSTATION BILLIGHEIM-ALLFELD                       ZURCK
Wetterdaten: Montag, 23.06.2014
Datum Zeit Temp. A. Temp. A. min Temp. A. max Feuchte A. Luftdruck Regen Wind Richtung Richtung Sonnenschein ET Solar Taupunkt Windchill Windben Empfang
23.06.2014 00:00 13,2 C 13,2 C 13,4 C 72 % 1020,1 hPa 0,0 l/m 0,0 km/h (0 Bft) N 0 0 min 0,025 mm 0 W/m 8,3 C 13,2 C 0,0 km/h (0 Bft) 100 %
23.06.2014 00:10 13,0 C 13,0 C 13,2 C 72 % 1020,1 hPa 0,0 l/m 0,0 km/h (0 Bft) N 0 0 min 0,000 mm 0 W/m 8,1 C 13,0 C 0,0 km/h (0 Bft) 100 %
23.06.2014 00:20 12,8 C 12,8 C 13,0 C 73 % 1020,1 hPa 0,0 l/m 0,0 km/h (0 Bft) N 0 0 min 0,000 mm 0 W/m 8,1 C 12,8 C 0,0 km/h (0 Bft) 100 %
23.06.2014 00:30 12,6 C 12,6 C 12,8 C 73 % 1020,1 hPa 0,0 l/m 0,0 km/h (0 Bft) N 0 0 min 0,000 mm 0 W/m 7,9 C 12,6 C 0,0 km/h (0 Bft) 100 %
23.06.2014 00:40 12,4 C 12,4 C 12,6 C 74 % 1020,3 hPa 0,0 l/m 0,0 km/h (0 Bft) N 0 0 min 0,000 mm 0 W/m 7,9 C 12,4 C 0,0 km/h (0 Bft) 100 %
23.06.2014 00:50 12,2 C 12,2 C 12,4 C 75 % 1020,3 hPa 0,0 l/m 0,0 km/h (0 Bft) N-NW 337 0 min 0,000 mm 0 W/m 7,9 C 12,2 C 1,6 km/h (1 Bft) 100 %
23.06.2014 01:00 12,0 C 12,0 C 12,2 C 76 % 1020,4 hPa 0,0 l/m 0,0 km/h (0 Bft) N 0 0 min 0,025 mm 0 W/m 7,9 C 12,0 C 0,0 km/h (0 Bft) 100 %
23.06.2014 01:10 11,9 C 11,9 C 12,0 C 76 % 1020,3 hPa 0,0 l/m 0,0 km/h (0 Bft) N-NW 337 0 min 0,000 mm 0 W/m 7,8 C 11,9 C 1,6 km/h (1 Bft) 100 %
23.06.2014 01:20 11,8 C 11,8 C 11,9 C 76 % 1020,2 hPa 0,0 l/m 0,0 km/h (0 Bft) N-NW 337 0 min 0,000 mm 0 W/m 7,7 C 11,8 C 1,6 km/h (1 Bft) 100 %
23.06.2014 01:30 11,7 C 11,7 C 11,8 C 76 % 1020,2 hPa 0,0 l/m 0,0 km/h (0 Bft) N 0 0 min 0,000 mm 0 W/m 7,6 C 11,7 C 0,0 km/h (0 Bft) 100 %
23.06.2014 01:40 11,6 C 11,6 C 11,7 C 77 % 1020,2 hPa 0,0 l/m 0,0 km/h (0 Bft) N 0 0 min 0,000 mm 0 W/m 7,7 C 11,6 C 0,0 km/h (0 Bft) 100 %
23.06.2014 01:50 11,4 C 11,4 C 11,6 C 78 % 1020,3 hPa 0,0 l/m 0,0 km/h (0 Bft) N 0 0 min 0,000 mm 0 W/m 7,7 C 11,4 C 0,0 km/h (0 Bft) 100 %
23.06.2014 02:00 11,2 C 11,2 C 11,4 C 78 % 1020,2 hPa 0,0 l/m 0,0 km/h (0 Bft) N 0 0 min 0,025 mm 0 W/m 7,5 C 11,2 C 0,0 km/h (0 Bft) 100 %
23.06.2014 02:10 10,9 C 10,9 C 11,2 C 79 % 1020,2 hPa 0,0 l/m 0,0 km/h (0 Bft) N 0 0 min 0,000 mm 0 W/m 7,4 C 10,9 C 0,0 km/h (0 Bft) 100 %
23.06.2014 02:20 10,7 C 10,7 C 10,9 C 80 % 1020,3 hPa 0,0 l/m 0,0 km/h (0 Bft) N 0 0 min 0,000 mm 0 W/m 7,4 C 10,7 C 0,0 km/h (0 Bft) 100 %
23.06.2014 02:30 10,5 C 10,5 C 10,7 C 81 % 1020,3 hPa 0,0 l/m 0,0 km/h (0 Bft) N-NW 337 0 min 0,000 mm 0 W/m 7,4 C 10,5 C 1,6 km/h (1 Bft) 100 %
23.06.2014 02:40 10,3 C 10,3 C 10,5 C 81 % 1020,3 hPa 0,0 l/m 0,0 km/h (0 Bft) N 0 0 min 0,000 mm 0 W/m 7,2 C 10,3 C 0,0 km/h (0 Bft) 100 %
23.06.2014 02:50 10,1 C 10,1 C 10,3 C 82 % 1020,2 hPa 0,0 l/m 0,0 km/h (0 Bft) N-NW 337 0 min 0,000 mm 0 W/m 7,2 C 10,1 C 1,6 km/h (1 Bft) 100 %
23.06.2014 03:00 10,0 C 10,0 C 10,1 C 82 % 1020,1 hPa 0,0 l/m 0,0 km/h (0 Bft) N-NW 337 0 min 0,025 mm 0 W/m 7,1 C 10,0 C 1,6 km/h (1 Bft) 99 %
23.06.2014 03:10 9,8 C 9,8 C 10,0 C 82 % 1020,1 hPa 0,0 l/m 0,0 km/h (0 Bft) N-NW 337 0 min 0,000 mm 0 W/m 6,9 C 9,8 C 1,6 km/h (1 Bft) 100 %
23.06.2014 03:20 9,7 C 9,6 C 9,8 C 83 % 1020,2 hPa 0,0 l/m 0,0 km/h (0 Bft) N-NW 337 0 min 0,000 mm 0 W/m 7,0 C 9,7 C 1,6 km/h (1 Bft) 100 %
23.06.2014 03:30 9,5 C 9,5 C 9,6 C 83 % 1020,2 hPa 0,0 l/m 0,0 km/h (0 Bft) N-NW 337 0 min 0,000 mm 0 W/m 6,8 C 9,5 C 3,2 km/h (1 Bft) 100 %
23.06.2014 03:40 9,4 C 9,3 C 9,5 C 84 % 1020,1 hPa 0,0 l/m 0,0 km/h (0 Bft) N-NW 337 0 min 0,000 mm 0 W/m 6,8 C 9,4 C 1,6 km/h (1 Bft) 100 %
23.06.2014 03:50 9,3 C 9,3 C 9,4 C 84 % 1020,1 hPa 0,0 l/m 0,0 km/h (0 Bft) N-NW 337 0 min 0,000 mm 0 W/m 6,7 C 9,3 C 1,6 km/h (1 Bft) 100 %
23.06.2014 04:00 9,2 C 9,2 C 9,3 C 84 % 1020,2 hPa 0,0 l/m 0,0 km/h (0 Bft) N-NW 337 0 min 0,000 mm 0 W/m 6,6 C 9,2 C 3,2 km/h (1 Bft) 99 %
23.06.2014 04:10 9,1 C 9,1 C 9,2 C 84 % 1020,1 hPa 0,0 l/m 0,0 km/h (0 Bft) N-NW 337 0 min 0,000 mm 0 W/m 6,5 C 9,1 C 1,6 km/h (1 Bft) 100 %
23.06.2014 04:20 9,0 C 9,0 C 9,1 C 84 % 1020,1 hPa 0,0 l/m 0,0 km/h (0 Bft) N-NW 337 0 min 0,000 mm 0 W/m 6,4 C 9,0 C 1,6 km/h (1 Bft) 100 %
23.06.2014 04:30 9,0 C 9,0 C 9,0 C 85 % 1020,2 hPa 0,0 l/m 1,6 km/h (1 Bft) N-NW 337 0 min 0,000 mm 0 W/m 6,6 C 9,0 C 4,8 km/h (1 Bft) 100 %
23.06.2014 04:40 8,9 C 8,9 C 9,0 C 84 % 1020,1 hPa 0,0 l/m 0,0 km/h (0 Bft) N-NW 337 0 min 0,000 mm 0 W/m 6,3 C 8,9 C 1,6 km/h (1 Bft) 100 %
23.06.2014 04:50 8,8 C 8,8 C 8,9 C 85 % 1020,1 hPa 0,0 l/m 0,0 km/h (0 Bft) N 360 0 min 0,000 mm 0 W/m 6,4 C 8,8 C 4,8 km/h (1 Bft) 100 %
23.06.2014 05:00 8,6 C 8,6 C 8,8 C 85 % 1020,0 hPa 0,0 l/m 0,0 km/h (0 Bft) N 360 0 min 0,000 mm 0 W/m 6,2 C 8,6 C 6,4 km/h (2 Bft) 100 %
23.06.2014 05:10 8,6 C 8,6 C 8,6 C 85 % 1020,0 hPa 0,0 l/m 1,6 km/h (1 Bft) N 360 0 min 0,000 mm 0 W/m 6,2 C 8,6 C 6,4 km/h (2 Bft) 100 %
23.06.2014 05:20 8,5 C 8,5 C 8,6 C 85 % 1020,0 hPa 0,0 l/m 0,0 km/h (0 Bft) N 360 0 min 0,000 mm 0 W/m 6,1 C 8,5 C 4,8 km/h (1 Bft) 100 %
23.06.2014 05:30 8,5 C 8,5 C 8,5 C 86 % 1019,9 hPa 0,0 l/m 0,0 km/h (0 Bft) N 360 0 min 0,000 mm 5 W/m 6,3 C 8,5 C 1,6 km/h (1 Bft) 100 %
23.06.2014 05:40 8,4 C 8,4 C 8,5 C 85 % 1019,9 hPa 0,0 l/m 0,0 km/h (0 Bft) N 0 0 min 0,000 mm 9 W/m 6,0 C 8,4 C 0,0 km/h (0 Bft) 100 %
23.06.2014 05:50 8,4 C 8,4 C 8,4 C 86 % 1020,0 hPa 0,0 l/m 0,0 km/h (0 Bft) N 360 0 min 0,000 mm 12 W/m 6,2 C 8,4 C 1,6 km/h (1 Bft) 100 %
23.06.2014 06:00 8,4 C 8,4 C 8,4 C 86 % 1020,1 hPa 0,0 l/m 0,0 km/h (0 Bft) N 0 0 min 0,000 mm 14 W/m 6,2 C 8,4 C 0,0 km/h (0 Bft) 100 %
23.06.2014 06:10 8,4 C 8,4 C 8,4 C 86 % 1020,1 hPa 0,0 l/m 0,0 km/h (0 Bft) N 360 0 min 0,000 mm 18 W/m 6,2 C 8,4 C 1,6 km/h (1 Bft) 100 %
23.06.2014 06:20 8,4 C 8,4 C 8,4 C 86 % 1020,1 hPa 0,0 l/m 0,0 km/h (0 Bft) N 360 0 min 0,000 mm 21 W/m 6,2 C 8,4 C 3,2 km/h (1 Bft) 100 %
23.06.2014 06:30 8,5 C 8,4 C 8,5 C 86 % 1020,2 hPa 0,0 l/m 0,0 km/h (0 Bft) N 360 0 min 0,000 mm 23 W/m 6,3 C 8,5 C 3,2 km/h (1 Bft) 100 %
23.06.2014 06:40 8,7 C 8,5 C 8,7 C 86 % 1020,1 hPa 0,0 l/m 0,0 km/h (0 Bft) N 360 0 min 0,000 mm 25 W/m 6,5 C 8,7 C 1,6 km/h (1 Bft) 100 %
23.06.2014 06:50 8,9 C 8,7 C 8,9 C 86 % 1020,1 hPa 0,0 l/m 0,0 km/h (0 Bft) N 360 0 min 0,000 mm 26 W/m 6,7 C 8,9 C 1,6 km/h (1 Bft) 100 %
23.06.2014 07:00 9,0 C 8,9 C 9,1 C 86 % 1020,1 hPa 0,0 l/m 0,0 km/h (0 Bft) N 360 0 min 0,000 mm 30 W/m 6,8 C 9,0 C 4,8 km/h (1 Bft) 100 %
23.06.2014 07:10 9,2 C 9,1 C 9,2 C 86 % 1020,1 hPa 0,0 l/m 0,0 km/h (0 Bft) N 360 0 min 0,000 mm 30 W/m 7,0 C 9,2 C 1,6 km/h (1 Bft) 89 %
23.06.2014 07:20 9,4 C 9,2 C 9,4 C 86 % 1020,0 hPa 0,0 l/m 0,0 km/h (0 Bft) N 360 0 min 0,000 mm 32 W/m 7,2 C 9,4 C 4,8 km/h (1 Bft) 100 %
23.06.2014 07:30 9,6 C 9,4 C 9,6 C 86 % 1020,0 hPa 0,0 l/m 0,0 km/h (0 Bft) N 360 0 min 0,000 mm 33 W/m 7,4 C 9,6 C 3,2 km/h (1 Bft) 100 %
23.06.2014 07:40 9,8 C 9,6 C 9,8 C 86 % 1020,0 hPa 0,0 l/m 0,0 km/h (0 Bft) N 360 0 min 0,000 mm 35 W/m 7,6 C 9,8 C 3,2 km/h (1 Bft) 100 %
23.06.2014 07:50 10,2 C 9,8 C 10,2 C 86 % 1020,2 hPa 0,0 l/m 0,0 km/h (0 Bft) N 360 0 min 0,000 mm 39 W/m 8,0 C 10,2 C 1,6 km/h (1 Bft) 100 %
23.06.2014 08:00 10,8 C 10,2 C 10,8 C 86 % 1020,4 hPa 0,0 l/m 0,0 km/h (0 Bft) N 360 0 min 0,025 mm 42 W/m 8,6 C 10,8 C 1,6 km/h (1 Bft) 100 %
23.06.2014 08:10 11,4 C 10,8 C 11,4 C 84 % 1020,5 hPa 0,0 l/m 0,0 km/h (0 Bft) N 360 0 min 0,000 mm 49 W/m 8,8 C 11,4 C 1,6 km/h (1 Bft) 100 %
23.06.2014 08:20 12,2 C 11,4 C 12,2 C 82 % 1020,6 hPa 0,0 l/m 0,0 km/h (0 Bft) NW 315 10 min 0,000 mm 362 W/m 9,2 C 12,2 C 3,2 km/h (1 Bft) 100 %
23.06.2014 08:30 13,3 C 12,2 C 13,3 C 80 % 1020,5 hPa 0,0 l/m 0,0 km/h (0 Bft) N-NW 337 10 min 0,000 mm 399 W/m 9,9 C 13,3 C 3,2 km/h (1 Bft) 100 %
23.06.2014 08:40 14,7 C 13,3 C 14,7 C 74 % 1020,4 hPa 0,0 l/m 0,0 km/h (0 Bft) O-NO 67 10 min 0,000 mm 436 W/m 10,1 C 14,7 C 3,2 km/h (1 Bft) 100 %
23.06.2014 08:50 16,0 C 14,7 C 16,0 C 69 % 1020,3 hPa 0,0 l/m 0,0 km/h (0 Bft) W 270 10 min 0,000 mm 466 W/m 10,3 C 16,0 C 6,4 km/h (2 Bft) 100 %
23.06.2014 09:00 17,0 C 16,0 C 17,0 C 68 % 1020,2 hPa 0,0 l/m 1,6 km/h (1 Bft) SO 135 10 min 0,178 mm 492 W/m 11,0 C 17,0 C 8,0 km/h (2 Bft) 99 %
23.06.2014 09:10 17,7 C 17,0 C 17,7 C 63 % 1020,2 hPa 0,0 l/m 0,0 km/h (0 Bft) NO 45 10 min 0,000 mm 519 W/m 10,6 C 17,7 C 8,0 km/h (2 Bft) 99 %
23.06.2014 09:20 18,2 C 17,7 C 18,2 C 61 % 1020,2 hPa 0,0 l/m 1,6 km/h (1 Bft) SO 135 10 min 0,000 mm 545 W/m 10,6 C 18,2 C 6,4 km/h (2 Bft) 99 %
23.06.2014 09:30 18,7 C 18,2 C 18,7 C 61 % 1020,1 hPa 0,0 l/m 0,0 km/h (0 Bft) N-NW 337 10 min 0,000 mm 573 W/m 11,0 C 18,7 C 6,4 km/h (2 Bft) 99 %
23.06.2014 09:40 19,2 C 18,7 C 19,2 C 59 % 1020,4 hPa 0,0 l/m 0,0 km/h (0 Bft) W-NW 292 10 min 0,000 mm 594 W/m 11,0 C 19,2 C 4,8 km/h (1 Bft) 99 %
23.06.2014 09:50 19,4 C 19,2 C 19,5 C 55 % 1020,2 hPa 0,0 l/m 0,0 km/h (0 Bft) N-NW 337 10 min 0,000 mm 621 W/m 10,1 C 19,4 C 4,8 km/h (1 Bft) 100 %
23.06.2014 10:00 19,6 C 19,4 C 19,7 C 56 % 1020,3 hPa 0,0 l/m 1,6 km/h (1 Bft) NW 315 10 min 0,330 mm 647 W/m 10,6 C 19,6 C 6,4 km/h (2 Bft) 100 %
23.06.2014 10:10 20,1 C 19,4 C 20,1 C 53 % 1020,1 hPa 0,0 l/m 0,5 km/h (0 Bft) SW 222 10 min 0,000 mm 668 W/m 10,2 C 20,1 C 8,0 km/h (2 Bft) 100 %
23.06.2014 10:20 20,4 C 20,1 C 20,4 C 54 % 1020,0 hPa 0,0 l/m 1,0 km/h (0 Bft) N 5 10 min 0,000 mm 684 W/m 10,8 C 20,4 C 6,4 km/h (2 Bft) 100 %
23.06.2014 10:30 20,6 C 20,4 C 20,6 C 52 % 1019,7 hPa 0,0 l/m 1,7 km/h (1 Bft) N-NW 338 10 min 0,000 mm 708 W/m 10,4 C 20,6 C 9,7 km/h (2 Bft) 100 %
23.06.2014 10:40 20,7 C 20,5 C 20,7 C 51 % 1019,6 hPa 0,0 l/m 0,5 km/h (0 Bft) NW 325 10 min 0,000 mm 729 W/m 10,2 C 20,7 C 6,4 km/h (2 Bft) 100 %
23.06.2014 10:50 20,6 C 20,6 C 20,7 C 51 % 1019,6 hPa 0,0 l/m 1,3 km/h (1 Bft) N-NW 338 10 min 0,000 mm 745 W/m 10,1 C 20,6 C 6,4 km/h (2 Bft) 100 %
23.06.2014 11:00 20,9 C 20,6 C 20,9 C 51 % 1019,6 hPa 0,0 l/m 0,5 km/h (0 Bft) NW 318 10 min 0,408 mm 770 W/m 10,4 C 20,9 C 6,4 km/h (2 Bft) 100 %
23.06.2014 11:10 21,5 C 20,9 C 21,5 C 49 % 1019,5 hPa 0,0 l/m 0,7 km/h (0 Bft) NW 309 10 min 0,000 mm 786 W/m 10,3 C 21,5 C 6,4 km/h (2 Bft) 99 %
23.06.2014 11:20 21,6 C 21,5 C 21,7 C 49 % 1019,4 hPa 0,0 l/m 1,4 km/h (1 Bft) W-NW 292 10 min 0,000 mm 791 W/m 10,4 C 21,6 C 8,0 km/h (2 Bft) 100 %
23.06.2014 11:30 21,7 C 21,6 C 21,7 C 48 % 1019,5 hPa 0,0 l/m 0,9 km/h (0 Bft) O-SO 123 10 min 0,000 mm 809 W/m 10,2 C 21,7 C 9,7 km/h (2 Bft) 100 %
23.06.2014 11:40 21,6 C 21,6 C 21,7 C 48 % 1019,2 hPa 0,0 l/m 1,5 km/h (1 Bft) O-NO 76 10 min 0,000 mm 821 W/m 10,1 C 21,6 C 8,0 km/h (2 Bft) 100 %
23.06.2014 11:50 21,9 C 21,6 C 22,0 C 47 % 1018,9 hPa 0,0 l/m 2,2 km/h (1 Bft) O-SO 110 10 min 0,000 mm 828 W/m 10,1 C 21,9 C 11,3 km/h (2 Bft) 100 %
23.06.2014 12:00 22,1 C 21,8 C 22,1 C 49 % 1018,8 hPa 0,0 l/m 0,5 km/h (0 Bft) S 174 10 min 0,483 mm 853 W/m 10,9 C 22,1 C 6,4 km/h (2 Bft) 100 %
23.06.2014 12:10 22,4 C 22,1 C 22,4 C 47 % 1018,7 hPa 0,0 l/m 1,3 km/h (1 Bft) N 355 10 min 0,000 mm 867 W/m 10,5 C 22,4 C 8,0 km/h (2 Bft) 100 %
23.06.2014 12:20 22,6 C 22,4 C 22,7 C 47 % 1018,6 hPa 0,0 l/m 1,9 km/h (1 Bft) O-SO 122 10 min 0,000 mm 875 W/m 10,7 C 22,6 C 8,0 km/h (2 Bft) 100 %
23.06.2014 12:30 22,2 C 22,2 C 22,6 C 49 % 1018,7 hPa 0,0 l/m 3,3 km/h (1 Bft) O-SO 111 10 min 0,000 mm 817 W/m 11,0 C 22,2 C 14,5 km/h (3 Bft) 100 %
23.06.2014 12:40 21,9 C 21,9 C 22,2 C 50 % 1018,5 hPa 0,0 l/m 4,9 km/h (1 Bft) SW 220 10 min 0,000 mm 879 W/m 11,0 C 21,9 C 19,3 km/h (3 Bft) 100 %
23.06.2014 12:50 22,6 C 21,9 C 22,6 C 48 % 1018,5 hPa 0,0 l/m 3,4 km/h (1 Bft) O-SO 116 10 min 0,000 mm 893 W/m 11,0 C 22,6 C 14,5 km/h (3 Bft) 100 %
23.06.2014 13:00 22,8 C 22,4 C 22,8 C 46 % 1018,6 hPa 0,0 l/m 1,1 km/h (1 Bft) NW 322 10 min 0,533 mm 911 W/m 10,6 C 22,8 C 8,0 km/h (2 Bft) 100 %
23.06.2014 13:10 23,4 C 22,8 C 23,4 C 46 % 1018,6 hPa 0,0 l/m 3,9 km/h (1 Bft) N-NW 334 10 min 0,000 mm 893 W/m 11,1 C 23,4 C 16,1 km/h (3 Bft) 100 %
23.06.2014 13:20 23,8 C 23,4 C 23,8 C 44 % 1018,5 hPa 0,0 l/m 1,0 km/h (0 Bft) N-NW 334 10 min 0,000 mm 905 W/m 10,8 C 23,8 C 8,0 km/h (2 Bft) 100 %
23.06.2014 13:30 23,7 C 23,7 C 23,9 C 43 % 1018,4 hPa 0,0 l/m 0,6 km/h (0 Bft) NW 307 10 min 0,000 mm 937 W/m 10,4 C 23,7 C 9,7 km/h (2 Bft) 100 %
23.06.2014 13:40 24,1 C 23,6 C 24,1 C 46 % 1018,0 hPa 0,0 l/m 2,5 km/h (1 Bft) SO 140 10 min 0,000 mm 900 W/m 11,7 C 24,1 C 11,3 km/h (2 Bft) 100 %
23.06.2014 13:50 23,7 C 23,7 C 24,2 C 42 % 1018,1 hPa 0,0 l/m 0,6 km/h (0 Bft) N 5 10 min 0,000 mm 195 W/m 10,0 C 23,7 C 6,4 km/h (2 Bft) 100 %
23.06.2014 14:00 23,7 C 23,6 C 23,7 C 46 % 1018,0 hPa 0,0 l/m 2,8 km/h (1 Bft) NW 319 10 min 0,508 mm 954 W/m 11,4 C 23,7 C 11,3 km/h (2 Bft) 100 %
23.06.2014 14:10 24,4 C 23,7 C 24,4 C 41 % 1018,0 hPa 0,0 l/m 6,1 km/h (2 Bft) W 275 10 min 0,000 mm 775 W/m 10,3 C 24,4 C 16,1 km/h (3 Bft) 100 %
23.06.2014 14:20 24,7 C 24,4 C 24,7 C 42 % 1018,0 hPa 0,0 l/m 2,5 km/h (1 Bft) NW 311 10 min 0,000 mm 896 W/m 10,9 C 24,7 C 11,3 km/h (2 Bft) 100 %
23.06.2014 14:30 25,1 C 24,7 C 25,1 C 42 % 1017,8 hPa 0,0 l/m 2,6 km/h (1 Bft) NW 315 10 min 0,000 mm 935 W/m 11,3 C 25,1 C 11,3 km/h (2 Bft) 100 %
23.06.2014 14:40 25,3 C 25,1 C 25,3 C 40 % 1017,7 hPa 0,0 l/m 5,8 km/h (2 Bft) NW 321 10 min 0,000 mm 550 W/m 10,7 C 25,3 C 14,5 km/h (3 Bft) 100 %
23.06.2014 14:50 25,2 C 25,2 C 25,3 C 41 % 1017,7 hPa 0,0 l/m 5,9 km/h (2 Bft) W-NW 282 10 min 0,000 mm 682 W/m 11,0 C 25,2 C 11,3 km/h (2 Bft) 100 %
23.06.2014 15:00 25,1 C 25,1 C 25,2 C 41 % 1017,4 hPa 0,0 l/m 1,8 km/h (1 Bft) N-NO 23 10 min 0,508 mm 789 W/m 10,9 C 25,1 C 8,0 km/h (2 Bft) 100 %
23.06.2014 15:10 25,2 C 24,9 C 25,2 C 42 % 1017,3 hPa 0,0 l/m 4,1 km/h (1 Bft) N-NW 338 10 min 0,000 mm 902 W/m 11,4 C 25,2 C 14,5 km/h (3 Bft) 100 %
23.06.2014 15:20 25,5 C 25,2 C 25,5 C 41 % 1017,4 hPa 0,0 l/m 3,3 km/h (1 Bft) NO 42 10 min 0,000 mm 661 W/m 11,3 C 25,5 C 16,1 km/h (3 Bft) 100 %
23.06.2014 15:30 25,6 C 25,5 C 25,6 C 40 % 1017,3 hPa 0,0 l/m 3,8 km/h (1 Bft) N-NW 327 10 min 0,000 mm 543 W/m 11,0 C 25,6 C 14,5 km/h (3 Bft) 100 %
23.06.2014 15:40 25,6 C 25,6 C 25,7 C 41 % 1017,0 hPa 0,0 l/m 1,9 km/h (1 Bft) W-NW 295 10 min 0,000 mm 424 W/m 11,4 C 25,6 C 11,3 km/h (2 Bft) 100 %
23.06.2014 15:50 25,2 C 25,2 C 25,6 C 42 % 1016,8 hPa 0,0 l/m 2,9 km/h (1 Bft) NW 314 10 min 0,000 mm 459 W/m 11,4 C 25,2 C 19,3 km/h (3 Bft) 100 %
23.06.2014 16:00 25,4 C 25,2 C 25,4 C 42 % 1016,8 hPa 0,0 l/m 2,6 km/h (1 Bft) N-NO 19 10 min 0,432 mm 650 W/m 11,5 C 25,4 C 19,3 km/h (3 Bft) 100 %
23.06.2014 16:10 25,0 C 25,0 C 25,4 C 43 % 1016,7 hPa 0,0 l/m 0,4 km/h (0 Bft) NW 320 10 min 0,000 mm 388 W/m 11,5 C 25,0 C 4,8 km/h (1 Bft) 100 %
23.06.2014 16:20 24,7 C 24,7 C 25,0 C 43 % 1016,7 hPa 0,0 l/m 1,9 km/h (1 Bft) N-NW 345 10 min 0,000 mm 555 W/m 11,3 C 24,7 C 11,3 km/h (2 Bft) 100 %
23.06.2014 16:30 24,8 C 24,7 C 24,8 C 43 % 1016,7 hPa 0,0 l/m 3,9 km/h (1 Bft) W 266 10 min 0,000 mm 322 W/m 11,4 C 24,8 C 16,1 km/h (3 Bft) 100 %
23.06.2014 16:40 24,9 C 24,8 C 24,9 C 42 % 1016,6 hPa 0,0 l/m 0,2 km/h (0 Bft) O-SO 117 10 min 0,000 mm 422 W/m 11,1 C 24,9 C 4,8 km/h (1 Bft) 100 %
23.06.2014 16:50 24,9 C 24,8 C 24,9 C 42 % 1016,5 hPa 0,0 l/m 0,5 km/h (0 Bft) SW 221 10 min 0,000 mm 686 W/m 11,1 C 24,9 C 6,4 km/h (2 Bft) 100 %
23.06.2014 17:00 24,5 C 24,5 C 24,9 C 44 % 1016,5 hPa 0,0 l/m 1,7 km/h (1 Bft) S-SO 159 10 min 0,330 mm 318 W/m 11,4 C 24,5 C 9,7 km/h (2 Bft) 100 %
23.06.2014 17:10 24,6 C 24,4 C 24,6 C 44 % 1016,5 hPa 0,0 l/m 3,0 km/h (1 Bft) NW 321 10 min 0,000 mm 388 W/m 11,5 C 24,6 C 14,5 km/h (3 Bft) 99 %
23.06.2014 17:20 25,0 C 24,6 C 25,0 C 44 % 1016,2 hPa 0,0 l/m 1,4 km/h (1 Bft) NW 309 10 min 0,000 mm 503 W/m 11,9 C 25,0 C 6,4 km/h (2 Bft) 100 %
23.06.2014 17:30 25,2 C 25,0 C 25,2 C 43 % 1016,3 hPa 0,0 l/m 4,8 km/h (1 Bft) NW 307 0 min 0,000 mm 141 W/m 11,7 C 25,2 C 16,1 km/h (3 Bft) 100 %
23.06.2014 17:40 24,8 C 24,8 C 25,2 C 43 % 1016,1 hPa 0,0 l/m 0,1 km/h (0 Bft) S-SW 208 10 min 0,000 mm 258 W/m 11,4 C 24,8 C 3,2 km/h (1 Bft) 100 %
23.06.2014 17:50 24,5 C 24,5 C 24,8 C 44 % 1016,2 hPa 0,0 l/m 1,4 km/h (1 Bft) N-NW 343 10 min 0,000 mm 294 W/m 11,4 C 24,5 C 14,5 km/h (3 Bft) 100 %
23.06.2014 18:00 23,9 C 23,9 C 24,5 C 45 % 1016,2 hPa 0,0 l/m 1,9 km/h (1 Bft) N-NW 331 10 min 0,254 mm 197 W/m 11,2 C 23,9 C 16,1 km/h (3 Bft) 100 %
23.06.2014 18:10 23,3 C 23,3 C 23,9 C 46 % 1016,1 hPa 0,0 l/m 1,4 km/h (1 Bft) N-NW 337 10 min 0,000 mm 199 W/m 11,0 C 23,3 C 9,7 km/h (2 Bft) 99 %
23.06.2014 18:20 22,9 C 22,9 C 23,3 C 45 % 1016,1 hPa 0,0 l/m 0,1 km/h (0 Bft) N-NO 22 10 min 0,000 mm 214 W/m 10,3 C 22,9 C 1,6 km/h (1 Bft) 100 %
23.06.2014 18:30 22,9 C 22,9 C 22,9 C 46 % 1016,0 hPa 0,0 l/m 0,4 km/h (0 Bft) O-NO 77 10 min 0,000 mm 279 W/m 10,7 C 22,9 C 6,4 km/h (2 Bft) 100 %
23.06.2014 18:40 22,9 C 22,9 C 22,9 C 47 % 1016,1 hPa 0,0 l/m 1,0 km/h (0 Bft) N-NW 340 10 min 0,000 mm 253 W/m 11,0 C 22,9 C 11,3 km/h (2 Bft) 100 %
23.06.2014 18:50 22,8 C 22,7 C 22,9 C 46 % 1016,1 hPa 0,0 l/m 2,0 km/h (1 Bft) N-NW 346 10 min 0,000 mm 332 W/m 10,6 C 22,8 C 8,0 km/h (2 Bft) 100 %
23.06.2014 19:00 22,8 C 22,7 C 22,8 C 44 % 1016,1 hPa 0,0 l/m 2,4 km/h (1 Bft) NW 321 10 min 0,178 mm 195 W/m 9,9 C 22,8 C 19,3 km/h (3 Bft) 100 %
23.06.2014 19:10 22,6 C 22,6 C 22,8 C 46 % 1016,1 hPa 0,0 l/m 0,3 km/h (0 Bft) N-NO 12 10 min 0,000 mm 156 W/m 10,4 C 22,6 C 8,0 km/h (2 Bft) 100 %
23.06.2014 19:20 22,3 C 22,3 C 22,6 C 45 % 1016,0 hPa 0,0 l/m 1,5 km/h (1 Bft) N 360 0 min 0,000 mm 137 W/m 9,8 C 22,3 C 9,7 km/h (2 Bft) 100 %
23.06.2014 19:30 21,9 C 21,9 C 22,3 C 47 % 1016,0 hPa 0,0 l/m 0,8 km/h (0 Bft) N 350 0 min 0,000 mm 121 W/m 10,1 C 21,9 C 16,1 km/h (3 Bft) 100 %
23.06.2014 19:40 21,7 C 21,7 C 21,9 C 47 % 1015,9 hPa 0,0 l/m 1,6 km/h (1 Bft) NW 325 0 min 0,000 mm 91 W/m 9,9 C 21,7 C 11,3 km/h (2 Bft) 100 %
23.06.2014 19:50 21,3 C 21,3 C 21,7 C 47 % 1016,0 hPa 0,0 l/m 1,3 km/h (1 Bft) N-NW 345 0 min 0,000 mm 81 W/m 9,5 C 21,3 C 11,3 km/h (2 Bft) 100 %
23.06.2014 20:00 21,1 C 21,1 C 21,3 C 49 % 1015,9 hPa 0,0 l/m 0,3 km/h (0 Bft) NW 326 0 min 0,102 mm 81 W/m 10,0 C 21,1 C 4,8 km/h (1 Bft) 100 %
23.06.2014 20:10 20,9 C 20,9 C 21,1 C 50 % 1016,0 hPa 0,0 l/m 0,4 km/h (0 Bft) N 355 0 min 0,000 mm 62 W/m 10,1 C 20,9 C 8,0 km/h (2 Bft) 99 %
23.06.2014 20:20 20,7 C 20,7 C 20,9 C 51 % 1015,9 hPa 0,0 l/m 0,8 km/h (0 Bft) N-NW 342 0 min 0,000 mm 47 W/m 10,2 C 20,7 C 11,3 km/h (2 Bft) 100 %
23.06.2014 20:30 20,4 C 20,4 C 20,7 C 50 % 1015,8 hPa 0,0 l/m 0,7 km/h (0 Bft) N-NW 329 0 min 0,000 mm 37 W/m 9,6 C 20,4 C 17,7 km/h (3 Bft) 100 %
23.06.2014 20:40 20,2 C 20,2 C 20,4 C 52 % 1015,7 hPa 0,0 l/m 0,5 km/h (0 Bft) N-NW 338 0 min 0,000 mm 28 W/m 10,0 C 20,2 C 6,4 km/h (2 Bft) 100 %
23.06.2014 20:50 19,9 C 19,9 C 20,2 C 53 % 1015,9 hPa 0,0 l/m 0,4 km/h (0 Bft) N-NW 335 0 min 0,000 mm 21 W/m 10,0 C 19,9 C 6,4 km/h (2 Bft) 100 %
23.06.2014 21:00 19,7 C 19,7 C 19,9 C 54 % 1016,0 hPa 0,0 l/m 0,2 km/h (0 Bft) NW 324 0 min 0,025 mm 12 W/m 10,1 C 19,7 C 3,2 km/h (1 Bft) 100 %
23.06.2014 21:10 19,4 C 19,4 C 19,7 C 54 % 1016,0 hPa 0,0 l/m 0,0 km/h (0 Bft) NW 315 0 min 0,000 mm 12 W/m 9,8 C 19,4 C 1,6 km/h (1 Bft) 100 %
23.06.2014 21:20 19,2 C 19,2 C 19,4 C 54 % 1016,1 hPa 0,0 l/m 0,0 km/h (0 Bft) NW 315 0 min 0,000 mm 7 W/m 9,7 C 19,2 C 1,6 km/h (1 Bft) 100 %
23.06.2014 21:30 18,8 C 18,8 C 19,1 C 55 % 1016,2 hPa 0,0 l/m 0,0 km/h (0 Bft) NW 315 0 min 0,000 mm 5 W/m 9,6 C 18,8 C 3,2 km/h (1 Bft) 100 %
23.06.2014 21:40 18,6 C 18,6 C 18,8 C 54 % 1016,3 hPa 0,0 l/m 0,0 km/h (0 Bft) NW 315 0 min 0,000 mm 5 W/m 9,1 C 18,6 C 1,6 km/h (1 Bft) 100 %
23.06.2014 21:50 18,3 C 18,3 C 18,6 C 55 % 1016,4 hPa 0,0 l/m 0,0 km/h (0 Bft) W-SW 247 0 min 0,000 mm 0 W/m 9,1 C 18,3 C 4,8 km/h (1 Bft) 100 %
23.06.2014 22:00 18,1 C 18,1 C 18,3 C 55 % 1016,4 hPa 0,0 l/m 0,0 km/h (0 Bft) NW 315 0 min 0,000 mm 0 W/m 8,9 C 18,1 C 1,6 km/h (1 Bft) 100 %
23.06.2014 22:10 17,9 C 17,9 C 18,1 C 55 % 1016,5 hPa 0,0 l/m 0,0 km/h (0 Bft) W-NW 292 0 min 0,000 mm 0 W/m 8,7 C 17,9 C 4,8 km/h (1 Bft) 100 %
23.06.2014 22:20 17,7 C 17,7 C 17,9 C 56 % 1016,8 hPa 0,0 l/m 0,0 km/h (0 Bft) N-NO 22 0 min 0,000 mm 0 W/m 8,8 C 17,7 C 3,2 km/h (1 Bft) 100 %
23.06.2014 22:30 17,5 C 17,5 C 17,7 C 57 % 1016,7 hPa 0,0 l/m 0,0 km/h (0 Bft) W 270 0 min 0,000 mm 0 W/m 8,9 C 17,5 C 4,8 km/h (1 Bft) 100 %
23.06.2014 22:40 17,3 C 17,3 C 17,5 C 56 % 1016,8 hPa 0,0 l/m 0,0 km/h (0 Bft) W 270 0 min 0,000 mm 0 W/m 8,4 C 17,3 C 4,8 km/h (1 Bft) 100 %
23.06.2014 22:50 17,1 C 17,1 C 17,3 C 57 % 1016,9 hPa 0,0 l/m 0,0 km/h (0 Bft) W-NW 292 0 min 0,000 mm 0 W/m 8,5 C 17,1 C 3,2 km/h (1 Bft) 99 %
23.06.2014 23:00 16,9 C 16,9 C 17,1 C 58 % 1016,9 hPa 0,0 l/m 0,0 km/h (0 Bft) W-NW 292 0 min 0,051 mm 0 W/m 8,6 C 16,9 C 1,6 km/h (1 Bft) 100 %
23.06.2014 23:10 16,8 C 16,8 C 16,9 C 59 % 1017,0 hPa 0,0 l/m 0,0 km/h (0 Bft) W-NW 292 0 min 0,000 mm 0 W/m 8,7 C 16,8 C 1,6 km/h (1 Bft) 100 %
23.06.2014 23:20 16,7 C 16,7 C 16,8 C 59 % 1017,0 hPa 0,0 l/m 0,0 km/h (0 Bft) W-NW 292 0 min 0,000 mm 0 W/m 8,6 C 16,7 C 1,6 km/h (1 Bft) 100 %
23.06.2014 23:30 16,6 C 16,6 C 16,7 C 60 % 1017,0 hPa 0,0 l/m 0,0 km/h (0 Bft) W-NW 292 0 min 0,000 mm 0 W/m 8,8 C 16,6 C 4,8 km/h (1 Bft) 100 %
23.06.2014 23:40 16,4 C 16,4 C 16,6 C 60 % 1017,1 hPa 0,0 l/m 0,0 km/h (0 Bft) W-NW 292 0 min 0,000 mm 0 W/m 8,6 C 16,4 C 4,8 km/h (1 Bft) 100 %
23.06.2014 23:50 16,3 C 16,3 C 16,4 C 61 % 1017,0 hPa 0,0 l/m 0,0 km/h (0 Bft) W-NW 292 0 min 0,000 mm 0 W/m 8,8 C 16,3 C 1,6 km/h (1 Bft) 100 %
_ Min-Zeit 05:40 05:40 05:50 14:40 20:40 - 00:00 - - - - - 05:40 05:40 00:00 07:10
Minimum _ 8,4 C 8,4 C 8,4 C 40 % 1015,7 hPa - 0,0 km/h (0 Bft) - - - - - 6,0 C 8,4 C 0,0 km/h (0 Bft) 89 %
_ Max-Zeit 15:40 15:40 15:40 05:30 08:20 00:00 14:10 - - 08:20 13:00 14:00 17:20 15:30 12:40 00:00
Maximum _ 25,7 C 25,6 C 25,7 C 86 % 1020,6 hPa 0,0 l/m 6,1 km/h
W (2 Bft)
- - 10 min 0,533 mm 954 W/m 11,9 C 25,6 C 19,3 km/h
SO (3 Bft)
100 %
Durchschnitt _ 17,4 C 17,3 C 17,5 C 61 % 1018,5 hPa #0,0 l/m 0,9 km/h (0 Bft) NW - #10:50 h #4,445 mm 413 W/m 9,2 C 17,4 C 6,2 km/h (2 Bft) 100 %
PRIVATE WETTERSTATION BILLIGHEIM-ALLFELD - www.neckar-odenwald-wetter.de - Holger Sonntag